DW2921 Weather Reports


Display with metric or nautical units.
time (UTC)temp
F
wind
direction
speed
MPH
gust
MPH
rain 1hr
in
rain 24hr
in
rain mn
in
humidity
%
barometer
mb
20260507113101 58 355 0.0 2.0 0.01 0.32 0.06 41 1013.0
20260507112102 58 355 0.0 3.0 0.01 0.32 0.06 41 1013.0
20260507111102 58 355 0.0 3.0 0.01 0.32 0.06 41 1013.0
20260507110103 58 355 2.0 3.0 0.01 0.32 0.06 41 1013.0
20260507105102 58 355 0.0 2.0 0.01 0.32 0.06 41 1013.0
20260507104101 58 355 2.0 6.0 0.00 0.31 0.05 41 1013.0
20260507103102 58 343 2.0 6.0 0.00 0.31 0.05 41 1013.0
20260507102102 58 327 1.0 3.0 0.00 0.31 0.05 41 1013.0
20260507101102 58 346 0.0 3.0 0.00 0.31 0.05 41 1013.0
20260507100103 58 349 1.0 3.0 0.00 0.31 0.05 41 1013.0
20260507095102 58 348 3.0 6.0 0.00 0.31 0.05 41 1013.0
20260507094102 59 345 1.0 3.0 0.00 0.31 0.05 41 1013.0
20260507093102 59 345 1.0 5.0 0.00 0.31 0.05 41 1013.0
20260507092102 59 355 0.0 2.0 0.00 0.31 0.05 41 1013.0
20260507091101 59 355 0.0 0.0 0.00 0.31 0.05 41 1013.0
20260507090103 59 355 0.0 2.0 0.00 0.31 0.05 41 1013.0
20260507085102 59 355 1.0 5.0 0.00 0.31 0.05 41 1013.0
20260507084102 59 331 1.0 3.0 0.00 0.31 0.05 41 1013.0
20260507083102 59 355 1.0 5.0 0.00 0.31 0.05 41 1013.0
20260507082102 59 357 1.0 5.0 0.01 0.31 0.05 41 1013.0
20260507081102 59 340 1.0 3.0 0.02 0.31 0.05 41 1013.0
20260507075102 60 342 1.0 3.0 0.02 0.31 0.05 41 1013.0
20260507074102 60 349 3.0 7.0 0.02 0.31 0.05 41 1013.0
20260507073102 60 351 2.0 6.0 0.02 0.31 0.05 41 1013.0
20260507072102 60 342 0.0 3.0 0.01 0.30 0.04 41 1013.0
20260507071101 60 319 0.0 3.0 0.00 0.30 0.03 41 1013.0
20260507070104 60 319 1.0 6.0 0.00 0.30 0.03 41 1013.0
20260507065102 60 346 2.0 7.0 0.00 0.30 0.03 41 1013.0
20260507064102 60 341 2.0 10.0 0.00 0.30 0.03 41 1013.0
20260507063102 61 359 3.0 8.0 0.00 0.30 0.03 41 1013.0
20260507062102 61 333 2.0 6.0 0.00 0.30 0.03 41 1013.0
20260507061102 61 1 3.0 7.0 0.01 0.30 0.03 41 1013.0
20260507055102 62 353 2.0 8.0 0.03 0.30 0.03 41 1013.0
20260507054102 62 354 0.0 6.0 0.03 0.30 0.03 41 1013.0
20260507053102 62 28 2.0 8.0 0.03 0.30 0.03 41 1013.0
20260507050104 63 355 1.0 3.0 0.01 0.28 0.01 41 1013.0
20260507045102 63 355 0.0 0.0 0.00 0.27 0.00 41 1013.0
20260507044101 63 355 0.0 2.0 0.00 0.27 0.00 41 1013.0
20260507043102 63 355 1.0 2.0 0.00 0.27 0.00 41 1013.0
20260507042102 64 355 0.0 0.0 0.00 0.27 0.00 41 1013.0
20260507040104 64 355 0.0 0.0 0.01 0.27 0.00 41 1013.0
20260507035102 64 355 0.0 0.0 0.01 0.27 0.27 41 1013.0
20260507034102 64 355 0.0 3.0 0.01 0.27 0.27 41 1013.0
20260507033102 64 355 1.0 5.0 0.01 0.27 0.27 41 1013.0
20260507031102 64 4 0.0 3.0 0.01 0.27 0.27 41 1013.0
20260507030104 64 4 0.0 2.0 0.00 0.26 0.26 41 1013.0
20260507023102 65 4 0.0 0.0 0.00 0.26 0.26 41 1013.0
20260507021102 65 4 1.0 3.0 0.00 0.26 0.26 41 1013.0
20260507020104 65 4 0.0 2.0 0.00 0.26 0.26 41 1013.0
20260507014102 65 8 0.0 5.0 0.01 0.26 0.26 41 1013.0
20260507013102 65 353 4.0 8.0 0.02 0.26 0.26 41 1013.0
20260507010104 66 193 0.0 10.0 0.02 0.26 0.26 41 1013.0
20260507005102 66 216 6.0 10.0 0.01 0.25 0.25 41 1013.0
20260507003102 67 213 5.0 9.0 0.08 0.24 0.24 41 1013.0
20260507002102 67 218 5.0 10.0 0.09 0.24 0.24 41 1013.0
20260507001102 67 193 3.0 12.0 0.10 0.24 0.24 41 1013.0
20260506234102 68 342 3.0 7.0 0.08 0.21 0.21 41 1013.0
20260506233102 68 213 1.0 5.0 0.03 0.16 0.16 41 1013.0
20260506232102 68 198 5.0 8.0 0.03 0.15 0.15 41 1013.0
20260506231102 68 245 5.0 12.0 0.02 0.14 0.14 41 1013.0
20260506225102 68 228 5.0 8.0 0.01 0.13 0.13 41 1013.0
20260506223102 68 204 6.0 12.0 0.01 0.13 0.13 41 1013.0
20260506222102 69 203 7.0 10.0 0.00 0.12 0.12 41 1013.0
20260506221102 69 220 7.0 15.0 0.00 0.12 0.12 41 1013.0
20260506220104 69 221 7.0 13.0 0.00 0.12 0.12 41 1013.0
20260506215102 69 204 7.0 17.0 0.00 0.12 0.12 41 1013.0
20260506213103 69 222 6.0 16.0 0.00 0.12 0.12 41 1013.0
20260506212102 69 218 6.0 13.0 0.00 0.12 0.12 41 1013.0
20260506211103 69 240 5.0 12.0 0.00 0.12 0.12 41 1013.0
20260506205103 69 254 4.0 10.0 0.00 0.12 0.12 41 1013.0
20260506204102 69 206 10.0 16.0 0.00 0.12 0.12 41 1013.0
20260506203102 70 214 7.0 16.0 0.00 0.12 0.12 41 1013.0
20260506202102 70 210 6.0 15.0 0.00 0.12 0.12 41 1013.0
20260506201102 70 208 7.0 17.0 0.00 0.12 0.12 41 1013.0
20260506200104 70 209 10.0 20.0 0.00 0.12 0.12 41 1013.0
20260506195103 70 216 7.0 17.0 0.00 0.12 0.12 41 1013.0
20260506194102 70 233 6.0 20.0 0.00 0.12 0.12 41 1013.0
20260506192102 70 204 7.0 17.0 0.00 0.12 0.12 41 1013.0
20260506191103 70 202 7.0 14.0 0.00 0.12 0.12 41 1013.0
20260506190104 70 195 8.0 14.0 0.00 0.12 0.12 41 1013.0
20260506184102 70 200 7.0 12.0 0.00 0.12 0.12 41 1013.0
20260506183102 69 229 6.0 13.0 0.00 0.12 0.12 41 1013.0
20260506182102 70 234 9.0 14.0 0.00 0.12 0.12 41 1013.0
20260506180104 70 288 5.0 16.0 0.00 0.12 0.12 41 1013.0
20260506175103 70 245 5.0 13.0 0.00 0.12 0.12 41 1013.0
20260506174102 70 223 7.0 15.0 0.00 0.12 0.12 41 1013.0
20260506173102 69 227 9.0 16.0 0.00 0.12 0.12 41 1013.0
20260506171102 69 235 10.0 17.0 0.00 0.12 0.12 41 1013.0
20260506170104 68 196 9.0 14.0 0.00 0.12 0.12 41 1013.0
20260506163102 67 196 5.0 16.0 0.00 0.12 0.12 41 1013.0
20260506162103 67 191 6.0 16.0 0.00 0.12 0.12 41 1013.0
20260506161102 66 209 10.0 17.0 0.01 0.12 0.12 41 1013.0
20260506160104 65 210 7.0 15.0 0.01 0.12 0.12 41 1013.0
20260506155103 65 203 10.0 16.0 0.01 0.12 0.12 41 1013.0
20260506154103 65 217 7.0 16.0 0.02 0.12 0.12 41 1013.0
20260506153102 65 208 7.0 16.0 0.03 0.12 0.12 41 1013.0
20260506151103 65 205 10.0 16.0 0.04 0.11 0.11 41 1013.0
20260506150104 65 222 8.0 16.0 0.04 0.11 0.11 41 1013.0
20260506145102 65 216 6.0 14.0 0.04 0.11 0.11 41 1013.0
20260506144102 65 235 9.0 16.0 0.03 0.10 0.10 41 1013.0
20260506142102 65 207 7.0 15.0 0.01 0.08 0.08 41 1013.0
20260506141102 65 219 7.0 18.0 0.00 0.07 0.07 41 1013.0
20260506140104 65 232 7.0 21.0 0.01 0.07 0.07 41 1013.0
20260506135102 65 217 9.0 16.0 0.02 0.07 0.07 41 1013.0
20260506133102 65 236 10.0 17.0 0.03 0.07 0.07 41 1013.0
20260506132103 65 217 13.0 25.0 0.04 0.07 0.07 41 1013.0
20260506131102 65 212 13.0 23.0 0.05 0.07 0.07 41 1013.0
20260506130104 65 201 8.0 20.0 0.04 0.06 0.06 41 1013.0
20260506125102 66 240 5.0 10.0 0.03 0.05 0.05 41 1013.0
20260506124102 66 231 5.0 12.0 0.03 0.04 0.04 41 1013.0
20260506123103 66 232 7.0 12.0 0.03 0.04 0.04 41 1013.0
20260506122102 66 214 4.0 10.0 0.02 0.03 0.03 41 1013.0
20260506121103 66 205 3.0 10.0 0.01 0.02 0.02 41 1013.0
20260506120105 66 233 3.0 7.0 0.01 0.02 0.02 41 1013.0
20260506115102 67 233 3.0 10.0 0.01 0.02 0.02 41 1013.0
20260506114102 67 191 5.0 12.0 0.00 0.01 0.01 41 1013.0